User: anonymous   Login
Location: Unspecified
(0.0000°N, 0.0000°E)
Time: 20:19:13
(UTC+00:00)
Language:

STSS DEMO 2 (USA 209) - Orbit

View from above orbital plane
View from above orbital plane
View from above satellite
View from above satellite

Ground track
Ground track

The orbit data is extracted from the following two-line orbital elements,

1 35938U 09052B   17022.16442905 0.00000000  00000-0  00000-0 0    00
2 35938  57.9916  58.7285 0018152 155.4182 204.5817 12.79324485    07
Epoch (UTC): 22 January 2017 03:56:46
Eccentricity: 0.0018152
inclination: 57.9916°
perigee height: 1330 km
apogee height: 1358 km
right ascension of ascending node: 58.7285°
argument of perigee: 155.4182°
revolutions per day: 12.79324485
mean anomaly at epoch: 204.5817°
orbit number at epoch: 0

The dashed part of the orbit path shows where the satellite is in the earth's shadow,  

DLR